Home   Weather   Dessau-Rosslau   Past weeks

Flag for Germany Past Weather in Dessau-Rosslau, Saxony-Anhalt, Germany — Yesterday and Last 2 Weeks

Now
63 °F

Sunny.


Feels Like: 63 °F
Forecast: 57 / 69 °F
Wind: 8 mph from South

Location: Leipzig-Schkeuditz

Current Time: Jul 24, 2017 at 8:54:35 am

Latest Report: Jul 24, 2017 at 8:20 am


Visibility: 10 mi

Pressure: 29.83 "Hg

Humidity: 68%

Dew Point: 52 °F

Location of Dessau-RosslauLocation

Past Weather in Dessau-Rosslau — Graph

°F

Dessau-Rosslau Temperature Yesterday

Maximum temperature yesterday: 75 °F (at 1:50 pm)
Minimum temperature yesterday: 59 °F (at 11:20 pm)
Average temperature yesterday: 68 °F

High & Low Weather Summary for the Past Weeks

 TemperatureHumidityPressure
High86 °F (Jul 19, 3:20 pm)100% (Jul 10, 7:20 am)30.24 "Hg (Jul 10, 7:20 am)
Low50 °F (Jul 13, 4:50 am)35% (Jul 19, 3:20 pm)29.68 "Hg (Jul 12, 6:50 pm)
Average66 °F74%29.97 "Hg
* Reported Jul 9 7:20 am — Jul 24 7:50 am, Dessau-Rosslau. Weather by CustomWeather, © 2017

Note: Actual official high and low records may vary slightly from our data, if they occured in-between our weather recording intervals... More about our weather records

Advertising

Dessau-Rosslau Weather History for the Previous 24 Hours

Scroll right to see more
 ConditionsComfort  
Time TempWeatherWind HumidityBarometerVisibility
7:50 am
Mon, Jul 24
61 °FPassing clouds.8 mph77%29.83 "HgN/A
7:20 am59 °FSunny.6 mph77%29.83 "Hg10 mi
6:50 am57 °FSunny.6 mph82%29.86 "Hg10 mi
6:20 am55 °FSunny.7 mph88%29.86 "Hg10 mi
5:50 am55 °FSunny.6 mph88%29.86 "Hg10 mi
5:20 am55 °FClear.6 mph82%29.86 "Hg10 mi
4:50 am55 °FClear.7 mph82%29.89 "Hg10 mi
4:20 am55 °FPassing clouds.3 mph82%29.89 "HgN/A
3:50 am59 °FPassing clouds.6 mph68%29.89 "HgN/A
2:50 am57 °FClear.7 mph77%29.92 "Hg10 mi
2:20 am57 °FClear.7 mph77%29.92 "Hg10 mi
1:50 am57 °FClear.7 mph77%29.92 "Hg10 mi
12:50 am61 °FClear.6 mph72%29.95 "Hg10 mi
12:20 am61 °FClear.9 mph72%29.95 "Hg10 mi
11:50 pm
Sun, Jul 23
59 °FClear.10 mph72%29.95 "Hg10 mi
11:20 pm59 °FClear.9 mph72%29.95 "Hg10 mi
10:20 pm63 °FClear.9 mph64%29.95 "Hg10 mi
9:50 pm63 °FClear.9 mph68%29.95 "Hg10 mi
9:20 pm64 °FClear.8 mph60%29.95 "Hg10 mi
8:50 pm66 °FSunny.9 mph56%29.92 "Hg10 mi
8:20 pm72 °FSunny.13 mph47%29.92 "Hg10 mi
7:50 pm72 °FSunny.14 mph44%29.92 "Hg10 mi
7:20 pm75 °FSunny.8 mph41%29.92 "Hg10 mi
6:50 pm75 °FPassing clouds.14 mph39%29.92 "HgN/A
6:20 pm73 °FSunny.10 mph47%29.92 "Hg10 mi
5:20 pm75 °FScattered clouds.15 mph41%29.92 "HgN/A
4:50 pm75 °FScattered clouds.14 mph39%29.92 "HgN/A
3:50 pm75 °FScattered clouds.16 mph41%29.92 "HgN/A
3:20 pm75 °FScattered clouds.17 mph41%29.95 "HgN/A
2:50 pm75 °FBroken clouds.16 mph41%29.92 "HgN/A
2:34 pm73 °FBroken clouds.20 mph44%29.92 "HgN/A
1:50 pm75 °FBroken clouds.22 mph41%29.95 "HgN/A
1:20 pm73 °FBroken clouds.21 mph47%29.92 "HgN/A
12:50 pm73 °FPartly sunny.20 mph47%29.92 "HgN/A
12:20 pm73 °FPartly sunny.22 mph50%29.92 "HgN/A
12:08 pm73 °FPartly sunny.17 mph50%29.95 "HgN/A
11:50 am72 °FPartly sunny.16 mph61%29.95 "HgN/A
11:20 am70 °FPartly sunny.16 mph64%29.95 "HgN/A
10:50 am70 °FPartly sunny.14 mph73%29.92 "HgN/A
10:20 am70 °FPartly sunny.15 mph73%29.92 "HgN/A
9:50 am68 °FBroken clouds.12 mph83%29.92 "HgN/A
9:20 am66 °FSunny.8 mph88%29.92 "Hg10 mi
8:50 am66 °FSunny.7 mph88%29.92 "Hg10 mi
Weather by CustomWeather, © 2017

See weather overviewHow to use our weather pages